User: anonymous   Login
Location: Nashville
(36.1660°N, 86.7840°W)
Time: 13:15:05
(UTC-05:00)
Language:

ZACube-1 - Orbit

View from above orbital plane
View from above orbital plane
View from above satellite
View from above satellite

Ground track
Ground track

The orbit data is extracted from the following two-line orbital elements,

1 39417U 13066B   22135.89733426  .00002208  00000-0  27521-3 0  9997
2 39417  97.6346 108.8733 0058673 149.8960 210.5647 14.82203214458309
Epoch (UTC): 15 May 2022 21:32:09
Eccentricity: 0.0058673
inclination: 97.6346°
perigee height: 581 km
apogee height: 663 km
right ascension of ascending node: 108.8733°
argument of perigee: 149.8960°
revolutions per day: 14.82203214
mean anomaly at epoch: 210.5647°
orbit number at epoch: 45830

The dashed part of the orbit path shows where the satellite is in the earth's shadow,  

DLR